Home   Weather   Poland   Szczecin   Past weeks
Flag for Poland

Past Weather in Szczecin, Poland — Yesterday and Last 2 Weeks

Currently: 63 °F. More clouds than sun. (Weather station: Szczecin Airport, Poland). See more current weather

Past Weather in Szczecin — Graph

°F

Szczecin Temperature Yesterday

Maximum temperature yesterday: 77 °F (at 4:30 pm)
Minimum temperature yesterday: 43 °F (at 4:00 am)
Average temperature yesterday: 62 °F

High & Low Weather Summary for the Past Weeks

 TemperatureHumidityPressure
High82 °F (Jun 7, 3:00 pm)100% (Jun 7, 4:30 am)30.30 "Hg (Jun 7, 4:30 am)
Low43 °F (Jun 14, 4:00 am)23% (Jun 7, 3:00 pm)29.83 "Hg (Jun 12, 2:30 pm)
Average64 °F63%30.11 "Hg
* Reported May 31 10:00 am — Jun 15 10:30 am, Szczecin. Weather by CustomWeather, © 2021

Note: Actual official high and low records may vary slightly from our data, if they occured in-between our weather recording intervals... More about our weather records

Szczecin Weather History for the Previous 24 Hours

Scroll right to see more
 ConditionsComfort  
Time TempWeatherWind HumidityBarometerVisibility
10:30 am
Tue, Jun 15
63 °FPartly sunny.9 mph88%30.09 "HgN/A
10:00 am63 °FMore clouds than sun.8 mph88%30.07 "HgN/A
9:30 am63 °FLight rain. Partly sunny.7 mph88%30.07 "HgN/A
9:00 am64 °FPassing clouds.7 mph83%30.07 "HgN/A
8:30 am64 °FScattered clouds.7 mph83%30.07 "HgN/A
8:00 am64 °FPassing clouds.8 mph83%30.07 "HgN/A
7:30 am64 °FPassing clouds.8 mph78%30.04 "HgN/A
7:00 am63 °FSunny.6 mph83%30.04 "Hg10 mi
6:30 am61 °FSunny.2 mph83%30.04 "Hg10 mi
6:00 am57 °FSunny.1 mph88%30.04 "Hg10 mi
5:30 am55 °FSunny.2 mph94%30.01 "Hg10 mi
5:00 am55 °FSunny.1 mph94%30.01 "Hg10 mi
4:30 am55 °FClear.1 mph94%30.01 "Hg10 mi
4:00 am57 °FClear.1 mph88%30.01 "Hg10 mi
3:30 am57 °FClear.3 mph88%30.01 "Hg10 mi
3:00 am57 °FClear.5 mph88%30.01 "Hg10 mi
2:30 am59 °FClear.6 mph82%30.01 "Hg10 mi
2:00 am59 °FClear.6 mph82%30.01 "Hg10 mi
1:30 am59 °FClear.6 mph82%30.01 "Hg10 mi
1:00 am61 °FClear.6 mph77%30.04 "Hg10 mi
12:30 am63 °FClear.5 mph77%30.04 "Hg10 mi
12:00 am63 °FClear.7 mph77%30.04 "Hg10 mi
11:30 pm
Mon, Jun 14
64 °FClear.6 mph73%30.04 "Hg10 mi
11:00 pm63 °FClear.7 mph77%30.04 "Hg10 mi
10:30 pm64 °FClear.7 mph73%30.04 "Hg10 mi
10:00 pm63 °FClear.7 mph73%30.04 "Hg10 mi
9:30 pm66 °FClear.7 mph64%30.04 "Hg10 mi
9:00 pm66 °FPassing clouds.3 mph73%30.04 "HgN/A
8:30 pm73 °FPassing clouds.3 mph47%30.04 "HgN/A
8:00 pm75 °FPassing clouds.5 mph44%30.04 "HgN/A
7:30 pm75 °FPassing clouds.5 mph44%30.04 "HgN/A
7:00 pm75 °FPassing clouds.7 mph44%30.04 "HgN/A
6:30 pm77 °FPassing clouds.7 mph39%30.07 "HgN/A
6:00 pm77 °FPassing clouds.6 mph44%30.07 "HgN/A
5:30 pm77 °FPassing clouds.5 mph44%30.07 "HgN/A
5:00 pm77 °FPassing clouds.7 mph42%30.09 "HgN/A
4:30 pm77 °FPassing clouds.5 mph42%30.09 "HgN/A
4:00 pm75 °FPassing clouds.8 mph47%30.09 "HgN/A
3:30 pm75 °FPassing clouds.6 mph44%30.09 "HgN/A
3:00 pm75 °FPassing clouds.9 mph44%30.12 "HgN/A
2:30 pm73 °FSunny.7 mph47%30.12 "Hg10 mi
2:00 pm73 °FPassing clouds.6 mph47%30.12 "HgN/A
1:30 pm73 °FPassing clouds.7 mph50%30.12 "HgN/A
1:00 pm70 °FPassing clouds.7 mph53%30.15 "HgN/A
12:30 pm72 °FPassing clouds.6 mph53%30.15 "HgN/A
12:00 pm70 °FPassing clouds.6 mph53%30.15 "HgN/A
11:30 am68 °FPassing clouds.6 mph60%30.18 "HgN/A
11:00 am68 °FPassing clouds.6 mph56%30.18 "HgN/A
Weather by CustomWeather, © 2021

See weather overview